This demonstration page uses our WeatherBlox Daily Observations layout. Learn more.

Left ArrowRight Arrow

36.17497, -115.13722

Hourly Observations for June 27, 2021

Temp ( °F °C ) Dew Point ( °F °C ) Humidity (%) Winds ( mph kmh ) Pressure ( in mb ) Visibility ( mi km ) Precip ( " mm )
12:53 am 00:53 Clear 96 35.6 39 3.9 14 14 NE 9 15 29.69 1005 10 16 N/A
1:53 am 01:53 Clear 96 35.6 40 4.4 14 14 NNE 8 13 29.70 1006 10 16 N/A
2:53 am 02:53 Clear 95 35 40 4.4 15 15 N N/A 29.71 1006 10 16 N/A
3:53 am 03:53 Clear 96 35.6 40 4.4 14 14 NE 14 22 29.72 1006 10 16 N/A
4:53 am 04:53 Clear 96 35.6 40 4.4 14 14 ENE 8 13 29.74 1007 10 16 N/A
5:53 am 05:53 Sunny 93 33.9 39 3.9 15 15 N 6 9 29.76 1008 10 16 N/A
6:53 am 06:53 Sunny 93 33.9 41 5 16 16 NNW 12 19 29.77 1008 10 16 N/A
7:53 am 07:53 Sunny 95 35 41 5 15 15 NNW 10 17 29.78 1008 10 16 N/A
8:53 am 08:53 Sunny 98 36.7 39 3.9 13 13 VRB 5 7 29.78 1008 10 16 N/A
9:53 am 09:53 Sunny 100 37.8 40 4.4 13 13 NE 12 19 29.77 1008 10 16 N/A
10:53 am 10:53 Sunny 100 37.8 40 4.4 13 13 E 14 22 29.77 1008 10 16 N/A
11:53 am 11:53 Sunny 104 40 40 4.4 11 11 NE 13 20 29.75 1008 10 16 N/A
12:53 pm 12:53 Sunny 103 39.4 40 4.4 11 11 E 9 15 29.73 1007 10 16 N/A
1:53 pm 13:53 Sunny 107 41.7 40 4.4 10 10 ENE 14 22 29.69 1006 10 16 N/A
2:53 pm 14:53 Sunny 107 41.7 39 3.9 10 10 ENE 13 20 29.67 1005 10 16 N/A
3:53 pm 15:53 Sunny 107 41.7 38 3.3 9 9 E 12 19 29.65 1004 10 16 N/A
4:53 pm 16:53 Sunny 107 41.7 37 2.8 9 9 E 9 15 29.63 1003 10 16 N/A
5:53 pm 17:53 Sunny 107 41.7 37 2.8 9 9 E 8 13 29.61 1003 10 16 N/A
6:53 pm 18:53 Sunny 106 41.1 37 2.8 9 9 ESE 7 11 29.60 1002 10 16 N/A
7:53 pm 19:53 Sunny 104 40 38 3.3 10 10 ESE 7 11 29.60 1002 10 16 N/A
8:53 pm 20:53 Clear 101 38.3 38 3.3 11 11 SE 3 6 29.61 1003 10 16 N/A
9:53 pm 21:53 Clear 99 37.2 42 5.6 14 14 W 6 9 29.63 1003 10 16 N/A
10:53 pm 22:53 Clear 95 35 41 5 15 15 NW 5 7 29.63 1004 10 16 N/A
11:53 pm 23:53 Clear 93 33.9 42 5.6 17 17 NNW 8 13 29.64 1004 10 16 N/A

Powered by AerisWeather